Regional Weather Roundup
Issued by NWS

Home | Current Version | Previous Version | Graphics & Text | Print | Product List | Glossary On
Versions: 1 2 3 4 5 6 7 8 9 10 11 12 13 14 15 16 17 18 19 20 21 22 23 24 25 26 27 28 29 30 31 32 33 34 35 36 37 38 39 40 41 42 43 44 45 46 47 48 49 50
166
ASUS43 KBIS 031310
RWRND

NORTH DAKOTA REGIONAL WEATHER ROUNDUP
NATIONAL WEATHER SERVICE BISMARCK ND
700 AM CST SAT DEC 03 2016

NOTE: "FAIR" INDICATES FEW OR NO CLOUDS BELOW 12,000 FEET WITH NO
SIGNIFICANT WEATHER AND/OR OBSTRUCTIONS TO VISIBILITY.


NDZ001>003-009>011-017-031400-
NORTHWEST NORTH DAKOTA

CITY           SKY/WX    TMP DP  RH WIND       PRES   REMARKS
WILLISTON      CLEAR     22  17  81 S5        29.85F WCI  16
MINOT          CLEAR     24  21  88 SE7       29.92F WCI  16
MINOT AFB      CLEAR     22  19  88 SE13      29.92F WCI  10
$$

NDZ018>021-031>035-040>046-031400-
SOUTHWEST NORTH DAKOTA

CITY           SKY/WX    TMP DP  RH WIND       PRES   REMARKS
BISMARCK       CLOUDY    26  25  96 S15       30.02F FOG     WCI  14
DICKINSON      CLEAR     17  14  88 S8        29.88F WCI   7
GARRISON         N/A     23  21  92 SE6       29.95F WCI  16
HETTINGER ARPT CLEAR     18  15  88 SE5       29.92F WCI  11
$$

NDZ004>008-012>016-024-026-027-054-031400-
NORTHEAST NORTH DAKOTA

CITY           SKY/WX    TMP DP  RH WIND       PRES   REMARKS
GRAND FORKS    MOCLDY    26  20  77 S9        30.18F WCI  17
GRND FRKS AFB  CLOUDY    27  19  74 S12       30.17F WCI  16
DEVILS LAKE    FLURRIES  27  25  92 S15       30.08F WCI  15
$$

NDZ022-023-025-028>030-036>039-047>053-031400-
SOUTHEAST NORTH DAKOTA

CITY           SKY/WX    TMP DP  RH WIND       PRES   REMARKS
FARGO          CLOUDY    27  19  72 SE8       30.22F WCI  19
JAMESTOWN      CLOUDY    27  24  89 S13       30.11F WCI  16
$$





USA.gov is the U.S. government's official web portal to all federal, state and local government web resources and services.